Orbital Elements at Epoch 2459200.5 (2020-Dec-17.0) TDB
Reference: JPL 10 (heliocentric ecliptic J2000)
Element | Value | Uncertainty (1-sigma) | Units |
e | .4712934227910022 | 1.6243e-06 | |
a | .7142187045552257 | 4.6569e-08 | au |
q | .3776121266640379 | 1.142e-06 | au |
i | 23.85441841191959 | 0.0007222 | deg |
node | 290.1350975260717 | 0.00072079 | deg |
peri | 33.16117541644558 | 0.00049239 | deg |
M | 183.6480362008564 | 0.00091258 | deg |
tp | 2459308.499826003923 (2021-Apr-03.99982600) | 0.00056576 | TDB |
period | 220.467844665993 0.60 | 2.1563e-05 5.904e-08 | d yr |
n | 1.632891184405586 | 1.597e-07 | deg/d |
Q | 1.050825282446414 | 6.8516e-08 | au |
|
| | Orbit Determination Parameters
Additional Information
|